• In Uzbekistan
  • List of Countries
  • For 7 days
  • Water Temperature
  • Satellite Maps
  • Weather Map
  • Weather Widgets
  • user-avatar
    Login

    Hourly Weather La Rioja

    Today, 9 December, Friday

    Time Temperature Precipitation Wind Pressure Humidity
    00:00 +20°C° 0 mm 1 mps 714 mmHg 67%
    01:00 +20°C° 0 mm 1 mps 713 mmHg 68%
    02:00 +20°C° 0 mm 1 mps 713 mmHg 67%
    03:00 +19°C° 0 mm 1 mps 712 mmHg 68%
    04:00 +19°C° 0 mm 1 mps 712 mmHg 69%
    05:00 +19°C° 0 mm 1 mps 712 mmHg 70%
    06:00 +20°C° 0 mm 1 mps 712 mmHg 67%
    07:00 +20°C° 0 mm 2 mps 713 mmHg 65%
    08:00 +20°C° 0 mm 2 mps 713 mmHg 62%
    09:00 +21°C° 0.1 mm 3 mps 713 mmHg 59%
    10:00 +24°C° 0.1 mm 3 mps 713 mmHg 57%
    11:00 +25°C° 0.1 mm 4 mps 712 mmHg 54%
    12:00 +25°C° 0.2 mm 4 mps 712 mmHg 52%
    13:00 +26°C° 0.2 mm 4 mps 711 mmHg 50%
    14:00 +27°C° 0.2 mm 4 mps 710 mmHg 48%
    15:00 +27°C° 0.2 mm 4 mps 710 mmHg 47%
    16:00 +27°C° 0.2 mm 4 mps 710 mmHg 46%
    17:00 +27°C° 0.2 mm 4 mps 710 mmHg 46%
    18:00 +26°C° 0.2 mm 3 mps 711 mmHg 48%
    19:00 +25°C° 0.2 mm 2 mps 711 mmHg 51%
    20:00 +25°C° 0.2 mm 1 mps 712 mmHg 53%
    21:00 +24°C° 0.1 mm 1 mps 713 mmHg 53%
    22:00 +24°C° 0.1 mm 1 mps 713 mmHg 54%
    23:00 +24°C° 0.1 mm 1 mps 714 mmHg 54%

    Tomorrow, 10 December, Saturday

    Time Temperature Precipitation Wind Pressure Humidity
    00:00 +23°C° 0 mm 1 mps 714 mmHg 52%
    01:00 +23°C° 0 mm 1 mps 714 mmHg 50%
    02:00 +21°C° 0 mm 2 mps 714 mmHg 49%
    03:00 +21°C° 0 mm 2 mps 713 mmHg 47%
    04:00 +21°C° 0 mm 2 mps 713 mmHg 45%
    05:00 +20°C° 0 mm 2 mps 713 mmHg 44%
    06:00 +23°C° 0 mm 2 mps 714 mmHg 38%
    07:00 +25°C° 0 mm 2 mps 714 mmHg 32%
    08:00 +27°C° 0 mm 2 mps 714 mmHg 27%
    09:00 +28°C° 0 mm 2 mps 714 mmHg 23%
    10:00 +30°C° 0 mm 1 mps 714 mmHg 20%
    11:00 +31°C° 0 mm 1 mps 714 mmHg 16%
    12:00 +32°C° 0 mm 1 mps 713 mmHg 15%
    13:00 +33°C° 0 mm 1 mps 713 mmHg 13%
    14:00 +35°C° 0 mm 2 mps 712 mmHg 12%
    15:00 +34°C° 0 mm 1 mps 712 mmHg 12%
    16:00 +34°C° 0 mm 1 mps 711 mmHg 11%
    17:00 +34°C° 0 mm 1 mps 711 mmHg 11%
    18:00 +32°C° 0 mm 1 mps 711 mmHg 14%
    19:00 +31°C° 0 mm 2 mps 711 mmHg 17%
    20:00 +29°C° 0 mm 2 mps 712 mmHg 20%
    21:00 +28°C° 0 mm 2 mps 712 mmHg 19%
    22:00 +27°C° 0 mm 3 mps 713 mmHg 19%
    23:00 +26°C° 0 mm 3 mps 714 mmHg 19%

    Day after tomorrow, 11 December, Sunday

    Time Temperature Precipitation Wind Pressure Humidity
    00:00 +26°C° 0 mm 3 mps 713 mmHg 18%
    01:00 +25°C° 0 mm 3 mps 713 mmHg 18%
    02:00 +25°C° 0 mm 3 mps 713 mmHg 17%
    03:00 +24°C° 0 mm 3 mps 713 mmHg 17%
    04:00 +24°C° 0 mm 3 mps 713 mmHg 17%
    05:00 +22°C° 0 mm 3 mps 714 mmHg 17%
    06:00 +25°C° 0 mm 3 mps 714 mmHg 16%
    07:00 +27°C° 0 mm 3 mps 715 mmHg 15%
    08:00 +29°C° 0 mm 3 mps 716 mmHg 14%
    09:00 +30°C° 0 mm 2 mps 716 mmHg 13%
    10:00 +31°C° 0 mm 2 mps 716 mmHg 12%
    11:00 +33°C° 0 mm 1 mps 716 mmHg 12%
    12:00 +33°C° 0 mm 1 mps 715 mmHg 11%
    13:00 +34°C° 0 mm 1 mps 714 mmHg 11%
    14:00 +36°C° 0 mm 2 mps 713 mmHg 10%
    15:00 +36°C° 0 mm 2 mps 712 mmHg 11%
    16:00 +36°C° 0 mm 2 mps 712 mmHg 11%
    17:00 +36°C° 0 mm 2 mps 711 mmHg 11%
    18:00 +34°C° 0 mm 2 mps 711 mmHg 14%
    19:00 +31°C° 0 mm 2 mps 711 mmHg 17%
    20:00 +30°C° 0 mm 2 mps 711 mmHg 20%
    21:00 +29°C° 0 mm 2 mps 711 mmHg 21%
    22:00 +28°C° 0 mm 2 mps 710 mmHg 22%
    23:00 +27°C° 0 mm 2 mps 710 mmHg 23%

    12 December, Monday

    Time Temperature Precipitation Wind Pressure Humidity
    00:00 +27°C° 0 mm 2 mps 710 mmHg 23%
    01:00 +26°C° 0 mm 2 mps 709 mmHg 24%
    02:00 +26°C° 0 mm 2 mps 708 mmHg 24%
    03:00 +25°C° 0 mm 2 mps 707 mmHg 25%
    04:00 +25°C° 0 mm 2 mps 707 mmHg 25%
    05:00 +24°C° 0 mm 2 mps 707 mmHg 26%
    06:00 +27°C° 0 mm 2 mps 707 mmHg 22%
    07:00 +29°C° 0 mm 1 mps 707 mmHg 18%
    08:00 +31°C° 0 mm 1 mps 708 mmHg 14%
    09:00 +33°C° 0 mm 1 mps 708 mmHg 13%
    10:00 +35°C° 0 mm 2 mps 708 mmHg 12%
    11:00 +37°C° 0 mm 2 mps 708 mmHg 10%
    12:00 +38°C° 0 mm 2 mps 707 mmHg 10%
    13:00 +39°C° 0 mm 2 mps 707 mmHg 9%
    14:00 +40°C° 0 mm 2 mps 706 mmHg 9%
    15:00 +40°C° 0 mm 2 mps 706 mmHg 9%
    16:00 +40°C° 0 mm 3 mps 706 mmHg 9%
    17:00 +40°C° 0 mm 3 mps 706 mmHg 10%
    18:00 +38°C° 0 mm 3 mps 706 mmHg 12%
    19:00 +36°C° 0 mm 2 mps 707 mmHg 15%
    20:00 +34°C° 0 mm 2 mps 708 mmHg 17%
    21:00 +32°C° 0 mm 2 mps 709 mmHg 18%
    22:00 +31°C° 0 mm 2 mps 709 mmHg 19%
    23:00 +30°C° 0 mm 2 mps 710 mmHg 20%

    13 December, Tuesday

    Time Temperature Precipitation Wind Pressure Humidity
    00:00 +30°C° 0 mm 3 mps 711 mmHg 20%
    01:00 +29°C° 0 mm 3 mps 711 mmHg 21%
    02:00 +28°C° 0 mm 3 mps 711 mmHg 22%
    03:00 +27°C° 0 mm 3 mps 712 mmHg 26%
    04:00 +26°C° 0 mm 3 mps 713 mmHg 29%
    05:00 +25°C° 0 mm 3 mps 714 mmHg 33%
    06:00 +26°C° 0 mm 3 mps 715 mmHg 30%
    07:00 +27°C° 0 mm 3 mps 716 mmHg 28%
    08:00 +27°C° 0 mm 3 mps 717 mmHg 26%
    09:00 +28°C° 0 mm 3 mps 717 mmHg 24%
    10:00 +29°C° 0 mm 3 mps 716 mmHg 23%
    11:00 +30°C° 0 mm 2 mps 716 mmHg 21%
    12:00 +31°C° 0 mm 3 mps 715 mmHg 20%
    13:00 +33°C° 0 mm 3 mps 715 mmHg 19%
    14:00 +34°C° 0 mm 3 mps 714 mmHg 18%
    15:00 +34°C° 0 mm 3 mps 713 mmHg 18%
    16:00 +34°C° 0 mm 3 mps 713 mmHg 18%
    17:00 +34°C° 0 mm 3 mps 712 mmHg 18%
    18:00 +33°C° 0 mm 3 mps 713 mmHg 20%
    19:00 +30°C° 0 mm 2 mps 713 mmHg 23%
    20:00 +29°C° 0 mm 2 mps 714 mmHg 25%
    21:00 +28°C° 0 mm 2 mps 714 mmHg 27%
    22:00 +27°C° 0 mm 1 mps 714 mmHg 29%
    23:00 +27°C° 0 mm 1 mps 715 mmHg 31%

    14 December, Wednesday

    Time Temperature Precipitation Wind Pressure Humidity
    00:00 +26°C° 0 mm 1 mps 715 mmHg 33%
    01:00 +25°C° 0 mm 1 mps 714 mmHg 35%
    02:00 +25°C° 0 mm 1 mps 714 mmHg 37%
    03:00 +24°C° 0 mm 1 mps 714 mmHg 39%
    04:00 +24°C° 0 mm 1 mps 714 mmHg 40%
    05:00 +23°C° 0 mm 1 mps 714 mmHg 42%
    06:00 +25°C° 0 mm 1 mps 715 mmHg 37%
    07:00 +26°C° 0 mm 1 mps 715 mmHg 32%
    08:00 +28°C° 0 mm 1 mps 716 mmHg 27%
    09:00 +30°C° 0 mm 2 mps 716 mmHg 25%
    10:00 +31°C° 0 mm 2 mps 716 mmHg 23%
    11:00 +34°C° 0 mm 3 mps 716 mmHg 21%
    12:00 +35°C° 0 mm 3 mps 716 mmHg 20%
    13:00 +36°C° 0 mm 4 mps 715 mmHg 18%
    14:00 +37°C° 0 mm 4 mps 715 mmHg 17%
    15:00 +37°C° 0 mm 5 mps 714 mmHg 17%
    16:00 +37°C° 0 mm 5 mps 714 mmHg 17%
    17:00 +37°C° 0 mm 5 mps 714 mmHg 17%
    18:00 +35°C° 0 mm 4 mps 714 mmHg 20%
    19:00 +33°C° 0 mm 3 mps 714 mmHg 24%
    20:00 +31°C° 0 mm 2 mps 715 mmHg 27%
    21:00 +30°C° 0 mm 2 mps 715 mmHg 29%
    22:00 +29°C° 0 mm 2 mps 715 mmHg 31%
    23:00 +28°C° 0 mm 2 mps 716 mmHg 34%
    Show more